#timestamp,LO_Frequency,Hit 
1505386815.8,286046997.7,N
1505386835.6,286046998.0,N
1505386855.5,286046997.1,N
1505386875.3,286046996.6,N
1505386895.1,286046997.8,N
1505386915.8,286046999.6,N
1505386935.7,286046995.0,N
1505386955.5,286046996.2,N
1505386975.4,286046992.9,P
1505386995.2,286046996.7,N
1505387015.0,286046997.7,N
1505387015.9,286046997.7,N
1505387035.8,286046994.1,P
1505387055.6,286046997.1,N
1505387075.4,286046998.0,N
1505387095.3,286046997.3,N
1505387115.1,286046996.8,N
1505387116.0,286046996.8,N
1505387135.8,286046996.8,N
1505387155.7,286046993.8,P
1505387175.5,286047001.1,N
1505387195.3,286046998.1,N
1505387215.2,286046999.5,N
1505387235.9,286046997.3,N
1505387255.7,286046996.5,N
1505387275.5,286046997.3,N
1505387295.4,286046997.8,N
1505387315.2,286046998.3,N
1505387335.0,286046997.5,N
1505387335.9,286046997.5,N
1505387355.8,286046998.0,N
1505387375.6,286046995.0,P
1505387395.5,286046998.6,N
1505387415.3,286047001.1,N
1505387435.1,286047001.2,N
1505387455.8,286047000.1,N
1505387475.7,286047000.5,N
1505387495.5,286047000.9,N
1505387515.3,286047000.8,N
1505387535.2,286046998.6,N
1505387555.9,286046998.8,N
1505387575.7,286046997.8,N
1505387595.6,286046999.6,N
1505387615.4,286046998.7,N
1505387635.2,286046996.9,N
1505387655.1,286046996.7,N
1505387656.0,286046996.7,N
1505387675.8,286046994.9,N
1505387695.6,286046996.2,N
1505387715.5,286046997.9,N
1505387735.3,286046999.2,N
1505387755.1,286046999.4,N
1505387775.8,286046996.9,N
1505387795.7,286046996.8,N
1505387815.5,286046997.5,N
1505387835.3,286046996.1,N
1505387855.2,286046995.6,N
1505387875.9,286046999.1,N
1505387895.7,286046995.3,N
1505387915.6,286046995.9,N
1505387935.4,286046993.8,P
1505387955.2,286046997.0,N
1505387975.1,286046997.6,N
1505387976.0,286046997.6,N
1505387995.8,286046997.4,N
1505388015.6,286046994.9,P
1505388035.5,286046998.3,N
1505388055.3,286047000.8,N
1505388075.1,286047000.7,N
1505388095.9,286047000.5,N
1505388115.7,286046999.8,N
1505388135.5,286046999.5,N
1505388155.4,286046996.9,N
1505388175.2,286047000.4,N
1505388195.0,286047002.3,N
1505388195.9,286047002.3,N
1505388215.8,286047000.1,N
1505388235.6,286047001.7,N
1505388255.4,286047001.4,N
1505388275.3,286047005.6,N
1505388295.1,286047003.6,N
1505388296.0,286047003.6,N
1505388315.8,286047000.0,N
1505388335.6,286047002.4,N
1505388355.5,286047001.0,N
1505388375.3,286046999.7,N
1505388395.1,286047002.3,N
1505388415.9,286047000.1,N
1505388435.7,286047002.3,N
1505388455.5,286046998.8,N
1505388475.4,286046998.6,N
1505388495.2,286047000.6,N
1505388515.0,286046998.9,N
1505388515.9,286046998.9,N
1505388535.8,286047000.7,N
1505388555.6,286047000.7,N
1505388575.4,286047000.1,N
1505388595.3,286046999.7,N
1505388615.1,286047000.8,N
1505388616.0,286047000.8,N
1505388635.8,286046998.2,N
1505388655.6,286046998.0,N
1505388675.5,286046993.7,P
1505388695.3,286046993.8,N
1505388715.2,286046991.8,N
1505388735.9,286046995.4,N
1505388755.7,286046995.6,N
1505388775.5,286046996.9,N
1505388795.4,286046998.1,N
1505388815.2,286046996.6,N
1505388835.0,286046995.6,N
1505388835.9,286046995.6,N
1505388855.8,286046998.3,N
1505388875.6,286047001.2,N
1505388895.4,286047000.9,N
1505388915.3,286047000.4,N
1505388935.1,286047001.1,N
1505388936.0,286047001.1,N
1505388955.8,286046996.2,N
1505388975.7,286046994.3,N
1505388995.5,286046997.5,N
1505389015.3,286046996.2,N
1505389035.2,286046994.8,N
1505389055.9,286046994.9,N
1505389075.7,286046996.2,N
1505389095.5,286046996.3,N
1505389115.4,286046994.5,N
1505389135.2,286046996.2,N
1505389155.0,286046996.5,N
1505389155.9,286046996.5,N
1505389175.8,286046996.6,N
1505389195.6,286046998.3,N
1505389215.4,286046998.5,N
1505389235.3,286046998.7,N
1505389255.1,286046995.7,N
1505389256.0,286046995.7,N
1505389275.8,286046993.6,P
1505389295.7,286046997.0,N
1505389315.5,286046998.8,N
1505389335.3,286046998.1,N
1505389355.2,286046994.9,N
1505389375.9,286046996.6,N
1505389395.7,286046996.9,N
1505389415.6,286046998.2,N
1505389435.4,286047000.7,N
1505389455.2,286047000.5,N
1505389475.1,286046997.0,N
1505389476.0,286046997.0,N
1505389495.8,286046995.1,N
1505389515.6,286046995.3,N
1505389535.4,286046995.9,N
1505389555.3,286046994.7,N
1505389575.1,286046994.9,N
1505389595.9,286046991.7,P
1505389615.7,286047001.2,N
1505389635.5,286047000.2,N
1505389655.3,286046997.7,N
1505389675.2,286046997.4,N
1505389695.0,286046995.6,N
1505389695.9,286046995.6,N
1505389715.7,286046994.9,N
1505389735.6,286046995.4,N
1505389755.4,286046999.3,N
1505389775.2,286046998.4,N
1505389795.1,286046998.1,N
1505389796.0,286046998.1,N
1505389815.8,286046998.5,N
1505389835.6,286046998.4,N
1505389855.5,286046996.8,N
1505389875.3,286046999.0,N
1505389895.1,286047000.5,N
1505389915.9,286047004.0,N
1505389935.7,286047002.1,N
1505389955.5,286046999.6,N
1505389975.3,286046999.2,N
1505389995.2,286046996.5,N
1505390015.0,286047000.6,N
1505390015.9,286047000.6,N
1505390035.7,286047002.0,N
1505390055.6,286047000.2,N
1505390075.4,286047000.3,N
1505390095.2,286047005.7,N
1505390115.1,286047005.4,N
1505390116.0,286047005.4,N
1505390135.8,286047003.6,N
1505390155.6,286047002.4,N
1505390175.5,286047001.4,N
1505390195.3,286047000.1,N
1505390215.1,286046998.8,N
1505390235.9,286046995.2,N
1505390255.7,286046999.5,N
1505390275.5,286046995.4,N
1505390295.4,286046995.5,N
1505390315.2,286046995.0,N
1505390335.0,286046997.6,N
1505390335.9,286046997.6,N
1505390355.7,286046999.6,N
1505390375.6,286046997.0,N
1505390395.4,286046998.0,N
